Meteo18 Weather Cam more information Meteo18 Weather Cam


Thunder radar more information blitzortung!


Rain radar more information rain snow radar



Select another period ( hide this area )

Units Period Custom range Directly to
Metric English Both
Daily Weekly Monthly Yearly
use both date-selectors for a custom range
previous Day
With this date

WeatherUnderground graphs for this period ( click here )


Daily Summary for Saturday 18 August 2018
Time Temp. ( °C ) Dew pt. ( °C ) Wind ( km/h ) from Gust ( km/h ) Pressure ( hPa ) Humid.( % ) Rainrate ( cm )
High23,6 12,1 14,3 NNW ( 144/728 ) 17,7 1024,6 77 -
Average17,3 10,7 4,6 NNW #34/157 9,0 1023,6 66 -
Low14,1 9,8 -   0,0 1022,2 46 -
Daily Tabular details for Saturday 18 August 2018
Time Temp. ( °C ) Dew pt. ( °C ) Wind ( km/h ) from Gust ( km/h ) Pressure ( hPa ) Humid.( % ) Rainrate ( cm )
00:03 16,9 12,0   Calm   1022,2 73 -
00:09 16,9 11,8   Calm 1,6 1022,6 72 -
00:13 17,0 11,7   Calm 1,6 1022,6 71 -
00:19 17,1 11,6 3,2 NW 4,8 1022,6 70 -
00:23 17,3 11,6 4,7 NNW 6,4 1022,2 69 -
00:29 17,5 11,3 1,4 WNW 6,4 1022,2 67 -
00:33 17,6 11,2 1,4 NW 4,8 1022,6 66 -
00:39 17,7 11,0 4,7 NW 4,8 1022,6 65 -
00:43 17,8 10,9   Calm 4,8 1022,6 64 -
00:49 17,9 11,0 3,2 NW 4,8 1022,6 64 -
00:53 17,9 10,8 1,4 NW 4,8 1022,6 63 -
00:59 17,9 10,8 3,2 NW 6,4 1022,6 63 -
01:03 17,9 10,5 3,2 NNW 4,8 1022,6 62 -
01:07 17,9 10,5   Calm 3,2 1022,6 62 -
01:14 17,9 10,5 1,4 WNW 3,2 1022,6 62 -
01:18 17,9 10,5 1,4 WNW 4,8 1022,6 62 -
01:24 17,9 10,5 1,4 WNW 4,8 1022,9 62 -
01:28 17,9 10,5   Calm 3,2 1022,6 62 -
01:34 18,1 10,5 9,7 North 12,9 1022,9 61 -
01:38 18,3 10,4 4,7 NW 12,9 1022,6 60 -
01:44 18,4 10,5 7,9 NNE 12,9 1022,9 60 -
01:48 18,4 10,5 4,7 NNW 9,7 1022,9 60 -
01:54 18,3 10,4 1,4 NNW 9,7 1022,9 60 -
01:58 18,2 10,3 4,7 NNE 6,4 1022,9 60 -
02:04 17,9 10,3 1,4 NW 8,0 1022,9 61 -
02:08 17,7 10,1 4,7 NW 8,0 1022,9 61 -
02:14 17,4 10,0 4,7 NW 6,4 1022,9 62 -
02:18 17,2 10,1 3,2 NW 6,4 1022,9 63 -
02:24 16,9 10,0 3,2 WNW 3,2 1022,9 64 -
02:28 16,7 9,9 3,2 WNW 4,8 1022,9 64 -
02:34 16,4 9,8 1,4 WNW 3,2 1022,9 65 -
02:38 16,2 9,8 1,4 WNW 4,8 1023,2 66 -
02:44 16,1 10,0 1,4 WNW 8,0 1023,2 67 -
02:48 16,1 10,0 1,4 NW 6,4 1022,9 67 -
02:54 16,0 9,9 3,2 NNW 4,8 1022,9 67 -
02:58 16,0 9,9 1,4 NNW 3,2 1022,9 67 -
03:04 15,9 10,0 1,4 NW 4,8 1022,9 68 -
03:08 15,9 10,0 1,4 NNW 4,8 1023,2 68 -
03:14 15,9 10,2 3,2 NNW 8,0 1022,9 69 -
03:18 15,9 10,2 3,2 NNW 6,4 1022,9 69 -
03:24 15,9 10,2 1,4 NNW 4,8 1023,2 69 -
03:28 15,8 10,1 4,7 NNE 4,8 1023,2 69 -
03:34 15,8 10,3 4,7 North 8,0 1023,2 70 -
03:38 15,7 10,2 3,2 NNW 8,0 1023,2 70 -
03:44 15,6 10,1 1,4 NNW 6,4 1023,2 70 -
03:48 15,5 10,3   Calm 4,8 1023,2 71 -
03:54 15,4 10,4 4,7 NW 6,4 1023,2 72 -
03:58 15,4 10,4 6,4 NNW 8,0 1023,2 72 -
04:04 15,4 10,4 6,4 North 9,7 1023,2 72 -
04:08 15,3 10,3 7,9 NW 9,7 1023,2 72 -
04:14 15,3 10,3 3,2 NNW 9,7 1023,2 72 -
04:18 15,3 10,5 6,4 NW 11,3 1023,2 73 -
04:24 15,2 10,4 7,9 NNW 11,3 1023,2 73 -
04:28 15,1 10,3 3,2 NNW 8,0 1023,2 73 -
04:34 15,0 10,4 3,2 NW 8,0 1023,2 74 -
04:38 14,9 10,3 9,7 North 9,7 1023,2 74 -
04:44 14,9 10,3 4,7 NNW 8,0 1023,2 74 -
04:48 14,9 10,3 7,9 NNE 11,3 1023,2 74 -
04:54 14,9 10,3 11,1 NNW 12,9 1023,2 74 -
04:58 14,9 10,3 7,9 North 11,3 1023,2 74 -
05:04 14,8 10,4 6,4 NNE 8,0 1023,2 75 -
05:08 14,8 10,4 9,7 North 14,5 1023,2 75 -
05:14 14,8 10,4 7,9 North 14,5 1023,2 75 -
05:18 14,7 10,3 6,4 NNW 12,9 1023,2 75 -
05:24 14,7 10,3 3,2 North 11,3 1023,2 75 -
05:28 14,7 10,3 7,9 NE 16,1 1023,2 75 -
05:32 14,7 10,3 6,4 NNW 9,7 1023,2 75 -
05:38 14,6 10,4 3,2 NNE 11,3 1023,2 76 -
05:43 14,6 10,4 1,4 North 11,3 1023,2 76 -
05:49 14,5 10,3 3,2 North 9,7 1023,2 76 -
05:53 14,4 10,2 4,7 NNE 6,4 1023,2 76 -
05:59 14,3 10,3 4,7 NNW 9,7 1023,2 77 -
06:03 14,2 10,2 6,4 NNE 8,0 1023,2 77 -
06:09 14,3 10,3 6,4 NNE 12,9 1023,2 77 -
06:13 14,3 10,3 4,7 NNW 12,9 1023,2 77 -
06:19 14,4 10,2 11,1 North 11,3 1023,6 76 -
06:23 14,4 10,2 4,7 NNW 11,3 1023,6 76 -
06:29 14,4 10,2 1,4 NW 4,8 1023,6 76 -
06:33 14,3 10,1 4,7 NNE 8,0 1023,6 76 -
06:39 14,2 10,2 3,2 NW 11,3 1023,6 77 -
06:43 14,2 10,2 11,1 North 11,3 1023,6 77 -
06:49 14,1 10,1 11,1 NNW 11,3 1023,6 77 -
06:53 14,1 10,1 7,9 North 12,9 1023,6 77 -
06:59 14,2 10,2 6,4 North 9,7 1023,9 77 -
07:03 14,2 10,2 9,7 North 11,3 1023,9 77 -
07:09 14,3 10,3 3,2 NE 11,3 1023,9 77 -
07:13 14,4 10,2 6,4 NNW 9,7 1023,9 76 -
07:19 14,5 10,3 3,2 NW 12,9 1023,9 76 -
07:23 14,6 10,2 3,2 North 9,7 1023,9 75 -
07:29 14,7 10,3 6,4 NNW 9,7 1023,9 75 -
07:33 14,7 10,3 3,2 ENE 8,0 1023,9 75 -
07:39 14,8 10,4 6,4 ENE 8,0 1023,9 75 -
07:43 14,8 10,4 1,4 NNE 8,0 1023,9 75 -
07:49 14,9 10,3 1,4 NNW 8,0 1023,9 74 -
07:53 15,1 10,5 3,2 NNW 6,4 1023,9 74 -
07:59 15,2 10,6 1,4 NNW 4,8 1023,9 74 -
08:03 15,3 10,7 1,4 NNW 6,4 1023,9 74 -
08:09 15,5 10,7 4,7 North 6,4 1023,9 73 -
08:13 15,6 10,8 6,4 NNE 8,0 1023,9 73 -
08:19 15,7 10,9 4,7 NW 8,0 1023,9 73 -
08:23 15,8 10,8 6,4 North 9,7 1023,9 72 -
08:29 16,0 11,0 3,2 NNW 8,0 1023,9 72 -
08:33 16,2 10,9 3,2 NNE 9,7 1024,3 71 -
08:39 16,6 11,1 3,2 NW 8,0 1024,3 70 -
08:43 16,8 10,9 4,7 NNW 11,3 1024,3 68 -
08:49 17,0 10,8 3,2 NNE 8,0 1024,3 67 -
08:53 17,1 10,9 3,2 NNE 8,0 1024,3 67 -
08:59 17,3 10,9 9,7 NE 12,9 1024,3 66 -
09:03 17,3 10,7 4,7 ENE 14,5 1024,3 65 -
09:09 17,5 10,6 9,7 NNE 12,9 1024,3 64 -
09:13 17,6 10,7 7,9 ENE 11,3 1024,3 64 -
09:19 17,6 10,7 13,0 NE 12,9 1024,3 64 -
09:23 17,7 10,6 4,7 ENE 16,1 1024,3 63 -
09:29 17,7 10,6 7,9 NE 17,7 1024,3 63 -
09:33 17,8 10,9 7,9 NE 12,9 1024,3 64 -
09:39 17,9 10,8 4,7 NE 9,7 1024,3 63 -
09:43 18,2 10,8 7,9 NNE 9,7 1024,3 62 -
09:49 18,1 10,7 3,2 ENE 14,5 1024,3 62 -
09:53 18,3 11,1 6,4 North 11,3 1024,6 63 -
09:59 18,3 10,9 7,9 NE 14,5 1024,6 62 -
10:03 18,4 11,0 4,7 NE 12,9 1024,6 62 -
10:09 18,5 11,3 3,2 North 11,3 1024,6 63 -
10:13 18,8 11,1 1,4 NE 16,1 1024,6 61 -
10:19 18,9 11,2 6,4 NE 12,9 1024,6 61 -
10:23 18,9 11,2 7,9 ENE 16,1 1024,6 61 -
10:29 19,1 11,4 13,0 NNE 12,9 1024,6 61 -
10:33 19,1 11,4 1,4 NNE 9,7 1024,6 61 -
10:39 19,4 11,4 6,4 ENE 14,5 1024,6 60 -
10:43 19,6 11,6 6,4 NE 9,7 1024,6 60 -
10:49 19,6 11,4 4,7 NE 14,5 1024,6 59 -
10:53 19,8 11,6 3,2 ENE 11,3 1024,6 59 -
10:59 20,0 11,5 7,9 NNW 9,7 1024,6 58 -
11:03 20,3 11,8 6,4 NNE 12,9 1024,6 58 -
11:09 20,2 11,4 1,4 NNW 4,8 1024,6 57 -
11:13 20,4 11,6 7,9 East 9,7 1024,6 57 -
11:19 20,7 11,6 1,4 NE 9,7 1024,6 56 -
11:23 20,9 11,8 3,2 NE 4,8 1024,6 56 -
11:29 21,1 11,4 6,4 ENE 9,7 1024,6 54 -
11:33 21,2 11,5 6,4 NE 6,4 1024,6 54 -
11:39 21,6 11,9 11,1 NE 14,5 1024,6 54 -
11:43 21,7 11,7 6,4 NNE 11,3 1024,6 53 -
11:49 21,7 11,1   Calm 3,2 1024,6 51 -
11:53 22,0 11,7   Calm 3,2 1024,6 52 -
11:59 22,8 12,1 3,2 NE 9,7 1024,6 51 -
12:03 22,8 11,2   Calm 4,8 1024,3 48 -
12:09 22,6 11,0 6,4 East 9,7 1024,3 48 -
12:13 22,4 11,2   Calm 4,8 1024,3 49 -
12:19 22,8 11,2 4,7 NNE 11,3 1024,3 48 -
12:23 22,9 10,7 3,2 WSW 12,9 1024,3 46 -
12:29 22,8 10,9   Calm 4,8 1024,3 47 -
12:33 22,9 11,0 1,4 ESE 4,8 1024,3 47 -
12:39 23,1 11,2 7,9 NE 8,0 1024,3 47 -
12:43 22,9 10,7 3,2 NE 11,3 1023,9 46 -
12:49 23,3 11,0 13,0 East 14,5 1023,9 46 -
12:53 23,5 11,2 14,3 NNE 16,1 1023,9 46 -
12:59 23,3 11,0 1,4 SE 9,7 1023,9 46 -
13:03 23,6 11,3 9,7 NE 11,3 1023,9 46 -
Daily Summary for Saturday 18 August 2018
Time Temp. ( °C ) Dew pt. ( °C ) Wind ( km/h ) from Gust ( km/h ) Pressure ( hPa ) Humid.( % ) Rainrate ( cm )
High23,6 12,1 14,3 NNW ( 144/728 ) 17,7 1024,6 77 -
Average17,3 10,7 4,6 NNW #34/157 9,0 1023,6 66 -
Low14,1 9,8 -   0,0 1022,2 46 -
Daily Tabular details for Saturday 18 August 2018
Time Temp. ( °C ) Dew pt. ( °C ) Wind ( km/h ) from Gust ( km/h ) Pressure ( hPa ) Humid.( % ) Rainrate ( cm )
00:03 16,9 12,0   Calm   1022,2 73 -
00:09 16,9 11,8   Calm 1,6 1022,6 72 -
00:13 17,0 11,7   Calm 1,6 1022,6 71 -
00:19 17,1 11,6 3,2 NW 4,8 1022,6 70 -
00:23 17,3 11,6 4,7 NNW 6,4 1022,2 69 -
00:29 17,5 11,3 1,4 WNW 6,4 1022,2 67 -
00:33 17,6 11,2 1,4 NW 4,8 1022,6 66 -
00:39 17,7 11,0 4,7 NW 4,8 1022,6 65 -
00:43 17,8 10,9   Calm 4,8 1022,6 64 -
00:49 17,9 11,0 3,2 NW 4,8 1022,6 64 -
00:53 17,9 10,8 1,4 NW 4,8 1022,6 63 -
00:59 17,9 10,8 3,2 NW 6,4 1022,6 63 -
01:03 17,9 10,5 3,2 NNW 4,8 1022,6 62 -
01:07 17,9 10,5   Calm 3,2 1022,6 62 -
01:14 17,9 10,5 1,4 WNW 3,2 1022,6 62 -
01:18 17,9 10,5 1,4 WNW 4,8 1022,6 62 -
01:24 17,9 10,5 1,4 WNW 4,8 1022,9 62 -
01:28 17,9 10,5   Calm 3,2 1022,6 62 -
01:34 18,1 10,5 9,7 North 12,9 1022,9 61 -
01:38 18,3 10,4 4,7 NW 12,9 1022,6 60 -
01:44 18,4 10,5 7,9 NNE 12,9 1022,9 60 -
01:48 18,4 10,5 4,7 NNW 9,7 1022,9 60 -
01:54 18,3 10,4 1,4 NNW 9,7 1022,9 60 -
01:58 18,2 10,3 4,7 NNE 6,4 1022,9 60 -
02:04 17,9 10,3 1,4 NW 8,0 1022,9 61 -
02:08 17,7 10,1 4,7 NW 8,0 1022,9 61 -
02:14 17,4 10,0 4,7 NW 6,4 1022,9 62 -
02:18 17,2 10,1 3,2 NW 6,4 1022,9 63 -
02:24 16,9 10,0 3,2 WNW 3,2 1022,9 64 -
02:28 16,7 9,9 3,2 WNW 4,8 1022,9 64 -
02:34 16,4 9,8 1,4 WNW 3,2 1022,9 65 -
02:38 16,2 9,8 1,4 WNW 4,8 1023,2 66 -
02:44 16,1 10,0 1,4 WNW 8,0 1023,2 67 -
02:48 16,1 10,0 1,4 NW 6,4 1022,9 67 -
02:54 16,0 9,9 3,2 NNW 4,8 1022,9 67 -
02:58 16,0 9,9 1,4 NNW 3,2 1022,9 67 -
03:04 15,9 10,0 1,4 NW 4,8 1022,9 68 -
03:08 15,9 10,0 1,4 NNW 4,8 1023,2 68 -
03:14 15,9 10,2 3,2 NNW 8,0 1022,9 69 -
03:18 15,9 10,2 3,2 NNW 6,4 1022,9 69 -
03:24 15,9 10,2 1,4 NNW 4,8 1023,2 69 -
03:28 15,8 10,1 4,7 NNE 4,8 1023,2 69 -
03:34 15,8 10,3 4,7 North 8,0 1023,2 70 -
03:38 15,7 10,2 3,2 NNW 8,0 1023,2 70 -
03:44 15,6 10,1 1,4 NNW 6,4 1023,2 70 -
03:48 15,5 10,3   Calm 4,8 1023,2 71 -
03:54 15,4 10,4 4,7 NW 6,4 1023,2 72 -
03:58 15,4 10,4 6,4 NNW 8,0 1023,2 72 -
04:04 15,4 10,4 6,4 North 9,7 1023,2 72 -
04:08 15,3 10,3 7,9 NW 9,7 1023,2 72 -
04:14 15,3 10,3 3,2 NNW 9,7 1023,2 72 -
04:18 15,3 10,5 6,4 NW 11,3 1023,2 73 -
04:24 15,2 10,4 7,9 NNW 11,3 1023,2 73 -
04:28 15,1 10,3 3,2 NNW 8,0 1023,2 73 -
04:34 15,0 10,4 3,2 NW 8,0 1023,2 74 -
04:38 14,9 10,3 9,7 North 9,7 1023,2 74 -
04:44 14,9 10,3 4,7 NNW 8,0 1023,2 74 -
04:48 14,9 10,3 7,9 NNE 11,3 1023,2 74 -
04:54 14,9 10,3 11,1 NNW 12,9 1023,2 74 -
04:58 14,9 10,3 7,9 North 11,3 1023,2 74 -
05:04 14,8 10,4 6,4 NNE 8,0 1023,2 75 -
05:08 14,8 10,4 9,7 North 14,5 1023,2 75 -
05:14 14,8 10,4 7,9 North 14,5 1023,2 75 -
05:18 14,7 10,3 6,4 NNW 12,9 1023,2 75 -
05:24 14,7 10,3 3,2 North 11,3 1023,2 75 -
05:28 14,7 10,3 7,9 NE 16,1 1023,2 75 -
05:32 14,7 10,3 6,4 NNW 9,7 1023,2 75 -
05:38 14,6 10,4 3,2 NNE 11,3 1023,2 76 -
05:43 14,6 10,4 1,4 North 11,3 1023,2 76 -
05:49 14,5 10,3 3,2 North 9,7 1023,2 76 -
05:53 14,4 10,2 4,7 NNE 6,4 1023,2 76 -
05:59 14,3 10,3 4,7 NNW 9,7 1023,2 77 -
06:03 14,2 10,2 6,4 NNE 8,0 1023,2 77 -
06:09 14,3 10,3 6,4 NNE 12,9 1023,2 77 -
06:13 14,3 10,3 4,7 NNW 12,9 1023,2 77 -
06:19 14,4 10,2 11,1 North 11,3 1023,6 76 -
06:23 14,4 10,2 4,7 NNW 11,3 1023,6 76 -
06:29 14,4 10,2 1,4 NW 4,8 1023,6 76 -
06:33 14,3 10,1 4,7 NNE 8,0 1023,6 76 -
06:39 14,2 10,2 3,2 NW 11,3 1023,6 77 -
06:43 14,2 10,2 11,1 North 11,3 1023,6 77 -
06:49 14,1 10,1 11,1 NNW 11,3 1023,6 77 -
06:53 14,1 10,1 7,9 North 12,9 1023,6 77 -
06:59 14,2 10,2 6,4 North 9,7 1023,9 77 -
07:03 14,2 10,2 9,7 North 11,3 1023,9 77 -
07:09 14,3 10,3 3,2 NE 11,3 1023,9 77 -
07:13 14,4 10,2 6,4 NNW 9,7 1023,9 76 -
07:19 14,5 10,3 3,2 NW 12,9 1023,9 76 -
07:23 14,6 10,2 3,2 North 9,7 1023,9 75 -
07:29 14,7 10,3 6,4 NNW 9,7 1023,9 75 -
07:33 14,7 10,3 3,2 ENE 8,0 1023,9 75 -
07:39 14,8 10,4 6,4 ENE 8,0 1023,9 75 -
07:43 14,8 10,4 1,4 NNE 8,0 1023,9 75 -
07:49 14,9 10,3 1,4 NNW 8,0 1023,9 74 -
07:53 15,1 10,5 3,2 NNW 6,4 1023,9 74 -
07:59 15,2 10,6 1,4 NNW 4,8 1023,9 74 -
08:03 15,3 10,7 1,4 NNW 6,4 1023,9 74 -
08:09 15,5 10,7 4,7 North 6,4 1023,9 73 -
08:13 15,6 10,8 6,4 NNE 8,0 1023,9 73 -
08:19 15,7 10,9 4,7 NW 8,0 1023,9 73 -
08:23 15,8 10,8 6,4 North 9,7 1023,9 72 -
08:29 16,0 11,0 3,2 NNW 8,0 1023,9 72 -
08:33 16,2 10,9 3,2 NNE 9,7 1024,3 71 -
08:39 16,6 11,1 3,2 NW 8,0 1024,3 70 -
08:43 16,8 10,9 4,7 NNW 11,3 1024,3 68 -
08:49 17,0 10,8 3,2 NNE 8,0 1024,3 67 -
08:53 17,1 10,9 3,2 NNE 8,0 1024,3 67 -
08:59 17,3 10,9 9,7 NE 12,9 1024,3 66 -
09:03 17,3 10,7 4,7 ENE 14,5 1024,3 65 -
09:09 17,5 10,6 9,7 NNE 12,9 1024,3 64 -
09:13 17,6 10,7 7,9 ENE 11,3 1024,3 64 -
09:19 17,6 10,7 13,0 NE 12,9 1024,3 64 -
09:23 17,7 10,6 4,7 ENE 16,1 1024,3 63 -
09:29 17,7 10,6 7,9 NE 17,7 1024,3 63 -
09:33 17,8 10,9 7,9 NE 12,9 1024,3 64 -
09:39 17,9 10,8 4,7 NE 9,7 1024,3 63 -
09:43 18,2 10,8 7,9 NNE 9,7 1024,3 62 -
09:49 18,1 10,7 3,2 ENE 14,5 1024,3 62 -
09:53 18,3 11,1 6,4 North 11,3 1024,6 63 -
09:59 18,3 10,9 7,9 NE 14,5 1024,6 62 -
10:03 18,4 11,0 4,7 NE 12,9 1024,6 62 -
10:09 18,5 11,3 3,2 North 11,3 1024,6 63 -
10:13 18,8 11,1 1,4 NE 16,1 1024,6 61 -
10:19 18,9 11,2 6,4 NE 12,9 1024,6 61 -
10:23 18,9 11,2 7,9 ENE 16,1 1024,6 61 -
10:29 19,1 11,4 13,0 NNE 12,9 1024,6 61 -
10:33 19,1 11,4 1,4 NNE 9,7 1024,6 61 -
10:39 19,4 11,4 6,4 ENE 14,5 1024,6 60 -
10:43 19,6 11,6 6,4 NE 9,7 1024,6 60 -
10:49 19,6 11,4 4,7 NE 14,5 1024,6 59 -
10:53 19,8 11,6 3,2 ENE 11,3 1024,6 59 -
10:59 20,0 11,5 7,9 NNW 9,7 1024,6 58 -
11:03 20,3 11,8 6,4 NNE 12,9 1024,6 58 -
11:09 20,2 11,4 1,4 NNW 4,8 1024,6 57 -
11:13 20,4 11,6 7,9 East 9,7 1024,6 57 -
11:19 20,7 11,6 1,4 NE 9,7 1024,6 56 -
11:23 20,9 11,8 3,2 NE 4,8 1024,6 56 -
11:29 21,1 11,4 6,4 ENE 9,7 1024,6 54 -
11:33 21,2 11,5 6,4 NE 6,4 1024,6 54 -
11:39 21,6 11,9 11,1 NE 14,5 1024,6 54 -
11:43 21,7 11,7 6,4 NNE 11,3 1024,6 53 -
11:49 21,7 11,1   Calm 3,2 1024,6 51 -
11:53 22,0 11,7   Calm 3,2 1024,6 52 -
11:59 22,8 12,1 3,2 NE 9,7 1024,6 51 -
12:03 22,8 11,2   Calm 4,8 1024,3 48 -
12:09 22,6 11,0 6,4 East 9,7 1024,3 48 -
12:13 22,4 11,2   Calm 4,8 1024,3 49 -
12:19 22,8 11,2 4,7 NNE 11,3 1024,3 48 -
12:23 22,9 10,7 3,2 WSW 12,9 1024,3 46 -
12:29 22,8 10,9   Calm 4,8 1024,3 47 -
12:33 22,9 11,0 1,4 ESE 4,8 1024,3 47 -
12:39 23,1 11,2 7,9 NE 8,0 1024,3 47 -
12:43 22,9 10,7 3,2 NE 11,3 1023,9 46 -
12:49 23,3 11,0 13,0 East 14,5 1023,9 46 -
12:53 23,5 11,2 14,3 NNE 16,1 1023,9 46 -
12:59 23,3 11,0 1,4 SE 9,7 1023,9 46 -
13:03 23,6 11,3 9,7 NE 11,3 1023,9 46 -

Download your copy of this data-set  here

Our weather-data as stored at Weather Underground. Script developed by Jim McMurry. Adapted for the template by Leuven-Template.eu

You find our weather info also at:

Weather Underground

Equipment we use:

Weather-station
Davis Vue

Weather-program
Meteobridge

Weather-server
Raspberry PI 2 B+

Provider
1 and 1

Davis Vue

Meteobridge

Raspberry PI 2 B+

1 and 1